Capitol Logistics 2553


KMEM
Memphis International Airport
Memphis, Tennessee, US
KMIA
Miami International Airport
Miami, Florida, US

Route Details

Aircraft Information
Primary: Boeing 747-400BCF
Backup: Boeing 767-300BDSF
Date Restrictions
Between:Nov 16, 2019
Dec 31, 2019
Route Data
Distance: 748nm
Sched. Duration: 1h 46m
Avg. Duration: 1h 98m (+53m)
Times Flown: 3
Recm'd Route: PIEPE5 IBUFY ACORI BULZI NICKI Q81 ENDEW JUULI SSCOT5
Planned Altitude: 33,000ft
Origin Wx: KMEM 262154Z 32008KT 10SM FEW020 SCT140 SCT250 13/07 A2997 RMK AO2 SLP147 T01330067 $
Dest. Wx: KMIA 262153Z 13010KT 10SM FEW030 SCT250 26/19 A3001 RMK AO2 SLP164 T02560194 $
Notes: SEASONAL FLIGHT | FEDEX SURGE OPS CONTRACT

Financial History
Total Freight: 584,866lbs
Average Load: 194,955lbs/flt
Fuel Used: 112,147lbs
Avg. Fuel Used: 37,382lbs/flt
Fuel Expense: $117,754
Avg. Fuel Expense: $39,251
Avg. Fuel Cost: $1.05/lbs
Total Gross Income: $1,105,397
Pilot Pay: $707
Total Expenses: $119,539
Total Revenue: $866,450
Average Revenue: $368,465.57